CW5917 Weather Reports


Display with metric or nautical units.
time (UTC)temp
F
wind
direction
speed
MPH
gust
MPH
rain 1hr
in
rain 24hr
in
rain mn
in
humidity
%
barometer
mb
20200406153534 54 96 6.0 11.0 0.00 0.00 0.00 54 1017.4
20200406153037 53 84 4.0 9.0 0.00 0.00 0.00 56 1017.4
20200406152536 53 67 5.0 9.0 0.00 0.00 0.00 55 1017.6
20200406152037 52 91 3.0 7.0 0.00 0.00 0.00 55 1017.9
20200406151525 52 92 3.0 8.0 0.00 0.00 0.00 56 1017.9
20200406151022 52 80 3.0 7.0 0.00 0.00 0.00 58 1017.9
20200406150546 51 141 3.0 8.0 0.00 0.00 0.00 55 1018.0
20200406150024 51 121 4.0 9.0 0.00 0.00 0.00 57 1018.1
20200406145521 50 175 2.0 9.0 0.00 0.00 0.00 57 1018.1
20200406145020 49 102 2.0 4.0 0.00 0.00 0.00 60 1018.2
20200406144528 49 166 2.0 5.0 0.00 0.00 0.00 54 1018.4
20200406144024 49 148 2.0 5.0 0.00 0.00 0.00 56 1018.4
20200406143537 48 44 2.0 6.0 0.00 0.00 0.00 56 1018.5
20200406143025 48 131 2.0 7.0 0.00 0.00 0.00 56 1018.5
20200406142523 47 163 2.0 7.0 0.00 0.00 0.00 59 1018.5
20200406142018 47 115 3.0 7.0 0.00 0.00 0.00 59 1018.6
20200406141529 45 79 2.0 5.0 0.00 0.00 0.00 60 1018.6
20200406141020 45 71 2.0 5.0 0.00 0.00 0.00 59 1018.9
20200406140550 43 96 1.0 4.0 0.00 0.00 0.00 62 1018.9
20200406140038 42 112 2.0 3.0 0.00 0.00 0.00 63 1018.9
20200406135532 41 88 2.0 3.0 0.00 0.00 0.00 62 1019.1
20200406135029 40 92 1.0 3.0 0.00 0.00 0.00 63 1019.0
20200406134520 40 70 2.0 5.0 0.00 0.00 0.00 60 1019.0
20200406134029 40 85 2.0 7.0 0.00 0.00 0.00 60 1019.0
20200406133525 39 60 2.0 5.0 0.00 0.00 0.00 60 1019.1
20200406133032 39 90 1.0 4.0 0.00 0.00 0.00 61 1019.1
20200406132528 39 90 3.0 4.0 0.00 0.00 0.00 57 1019.2
20200406132025 38 86 1.0 4.0 0.00 0.00 0.00 59 1019.3
20200406131531 38 78 2.0 4.0 0.00 0.00 0.00 60 1019.4
20200406131029 38 84 1.0 3.0 0.00 0.00 0.00 63 1019.4
20200406130558 37 87 0.0 3.0 0.00 0.00 0.00 63 1019.4
20200406130032 37 95 0.0 3.0 0.00 0.00 0.00 64 1019.5
20200406125529 37 95 1.0 2.0 0.00 0.00 0.00 65 1019.6
20200406125021 36 95 0.0 1.0 0.00 0.00 0.00 66 1019.5
20200406124534 36 95 0.0 0.0 0.00 0.00 0.00 66 1019.4
20200406124032 36 95 0.0 0.0 0.00 0.00 0.00 63 1019.6
20200406123529 36 95 0.0 0.0 0.00 0.00 0.00 64 1019.4
20200406123020 36 95 0.0 0.0 0.00 0.00 0.00 64 1019.6
20200406122518 36 95 0.0 0.0 0.00 0.00 0.00 68 1019.4
20200406122029 36 95 0.0 0.0 0.00 0.00 0.00 70 1019.5
20200406121519 36 95 0.0 0.0 0.00 0.00 0.00 66 1019.5
20200406121037 36 95 0.0 0.0 0.00 0.00 0.00 66 1019.4
20200406120546 35 95 0.0 0.0 0.00 0.00 0.00 67 1019.3
20200406120034 35 95 0.0 0.0 0.00 0.00 0.00 69 1019.2
20200406115529 35 95 0.0 0.0 0.00 0.00 0.00 69 1019.4
20200406115027 34 95 0.0 0.0 0.00 0.00 0.00 69 1019.4
20200406114521 34 95 0.0 0.0 0.00 0.00 0.00 69 1019.3
20200406114020 34 95 0.0 0.0 0.00 0.00 0.00 68 1019.4
20200406113538 34 95 0.0 0.0 0.00 0.00 0.00 66 1019.4
20200406113029 35 95 0.0 1.0 0.00 0.00 0.00 66 1019.4
20200406112522 35 95 0.0 1.0 0.00 0.00 0.00 66 1019.3
20200406112018 35 95 0.0 0.0 0.00 0.00 0.00 67 1019.2
20200406111527 35 95 0.0 2.0 0.00 0.00 0.00 67 1019.1
20200406111025 34 95 1.0 4.0 0.00 0.00 0.00 68 1018.9
20200406110556 34 95 0.0 4.0 0.00 0.00 0.00 74 1018.9
20200406110025 34 113 0.0 1.0 0.00 0.00 0.00 78 1018.9
20200406105522 33 113 0.0 1.0 0.00 0.00 0.00 77 1019.1
20200406105022 33 113 0.0 0.0 0.00 0.00 0.00 75 1019.2
20200406104531 33 113 0.0 0.0 0.00 0.00 0.00 75 1019.3
20200406104025 33 113 0.0 1.0 0.00 0.00 0.00 75 1019.2
20200406103524 33 113 0.0 3.0 0.00 0.00 0.00 75 1019.3
20200406103030 33 113 0.0 3.0 0.00 0.00 0.00 74 1019.4
20200406102524 33 113 0.0 1.0 0.00 0.00 0.00 72 1019.4
20200406102025 33 113 0.0 0.0 0.00 0.00 0.00 72 1019.3
20200406101534 33 113 0.0 0.0 0.00 0.00 0.00 72 1019.2
20200406101031 33 113 0.0 0.0 0.00 0.00 0.00 71 1019.2
20200406100556 33 113 0.0 0.0 0.00 0.00 0.00 74 1019.3
20200406100020 33 113 0.0 0.0 0.00 0.00 0.00 72 1019.3
20200406095538 33 113 0.0 1.0 0.00 0.00 0.00 67 1019.3
20200406095036 34 113 0.0 2.0 0.00 0.00 0.00 67 1019.3
20200406094525 34 113 0.0 2.0 0.00 0.00 0.00 65 1019.4
20200406094020 33 113 0.0 1.0 0.00 0.00 0.00 68 1019.4
20200406093533 33 113 0.0 2.0 0.00 0.00 0.00 70 1019.5
20200406093024 33 113 0.0 2.0 0.00 0.00 0.00 72 1019.6
20200406092520 34 113 0.0 0.0 0.00 0.00 0.00 70 1019.7
20200406092037 34 113 0.0 2.0 0.00 0.00 0.00 68 1019.7
20200406091526 34 113 0.0 2.0 0.00 0.00 0.00 68 1019.7
20200406091023 34 113 0.0 1.0 0.00 0.00 0.00 67 1019.6
20200406090547 35 113 0.0 1.0 0.00 0.00 0.00 68 1019.7
20200406090023 35 113 0.0 3.0 0.00 0.00 0.00 66 1019.7
20200406085521 35 114 0.0 3.0 0.00 0.00 0.00 67 1019.8
20200406085019 35 86 0.0 2.0 0.00 0.00 0.00 67 1019.8
20200406084528 35 84 1.0 2.0 0.00 0.00 0.00 67 1019.8
20200406084022 36 84 0.0 2.0 0.00 0.00 0.00 65 1019.7
20200406083538 36 84 1.0 3.0 0.00 0.00 0.00 65 1019.7
20200406083025 36 84 1.0 3.0 0.00 0.00 0.00 65 1019.7
20200406082523 35 96 1.0 3.0 0.00 0.00 0.00 66 1019.6
20200406082020 35 96 0.0 2.0 0.00 0.00 0.00 66 1019.7
20200406081525 35 97 0.0 2.0 0.00 0.00 0.00 67 1019.6
20200406081020 35 85 0.0 2.0 0.00 0.00 0.00 68 1019.6
20200406080546 35 85 1.0 2.0 0.00 0.00 0.00 68 1019.7
20200406080031 34 85 1.0 1.0 0.00 0.00 0.00 70 1019.8
20200406075527 34 85 0.0 1.0 0.00 0.00 0.00 71 1019.7
20200406075023 34 85 0.0 0.0 0.00 0.00 0.00 73 1019.8
20200406074528 34 85 0.0 0.0 0.00 0.00 0.00 72 1019.8
20200406074026 34 85 0.0 0.0 0.00 0.00 0.00 71 1019.9
20200406073522 34 85 0.0 0.0 0.00 0.00 0.00 71 1019.9
20200406073029 34 85 0.0 0.0 0.00 0.00 0.00 70 1019.8
20200406072525 35 85 0.0 0.0 0.00 0.00 0.00 71 1020.0
20200406072035 35 85 0.0 0.0 0.00 0.00 0.00 70 1019.8
20200406071526 35 85 0.0 0.0 0.00 0.00 0.00 70 1020.0
20200406071026 35 85 0.0 0.0 0.00 0.00 0.00 70 1019.9
20200406070554 36 85 0.0 1.0 0.00 0.00 0.00 70 1020.0
20200406070028 36 85 0.0 1.0 0.00 0.00 0.00 68 1019.9
20200406065521 37 85 0.0 1.0 0.00 0.00 0.00 66 1019.9
20200406065037 37 85 0.0 2.0 0.00 0.00 0.00 62 1019.8
20200406064525 38 85 0.0 2.0 0.00 0.00 0.00 62 1019.7
20200406064020 38 84 1.0 2.0 0.00 0.00 0.00 62 1019.8
20200406063518 38 86 1.0 2.0 0.00 0.00 0.00 63 1019.9
20200406063025 37 104 0.0 2.0 0.00 0.00 0.00 63 1019.9
20200406062537 38 104 1.0 2.0 0.00 0.00 0.00 65 1019.8
20200406062033 37 104 1.0 3.0 0.00 0.00 0.00 66 1019.8
20200406061524 38 105 1.0 3.0 0.00 0.00 0.00 66 1019.8
20200406061021 38 83 0.0 2.0 0.00 0.00 0.00 65 1019.8
20200406060548 38 81 1.0 2.0 0.00 0.00 0.00 64 1019.8
20200406060033 38 80 1.0 2.0 0.00 0.00 0.00 65 1019.8
20200406055530 38 80 1.0 2.0 0.00 0.00 0.00 65 1019.9
20200406055025 39 81 1.0 2.0 0.00 0.00 0.00 66 1019.9
20200406054537 39 80 1.0 2.0 0.00 0.00 0.00 65 1019.8
20200406054031 39 80 1.0 3.0 0.00 0.00 0.00 65 1019.9
20200406053526 39 80 2.0 3.0 0.00 0.00 0.00 65 1019.9
20200406053032 39 93 1.0 3.0 0.00 0.00 0.00 64 1020.0
20200406052531 39 93 1.0 3.0 0.00 0.00 0.00 66 1020.1
20200406052026 39 80 2.0 3.0 0.00 0.00 0.00 68 1020.1
20200406051535 39 88 1.0 2.0 0.00 0.00 0.00 68 1020.1
20200406051031 40 88 1.0 2.0 0.00 0.00 0.00 67 1020.3
20200406050556 40 88 1.0 2.0 0.00 0.00 0.00 65 1020.2
20200406050028 40 88 1.0 3.0 0.00 0.00 0.00 65 1020.3
20200406045526 40 94 1.0 3.0 0.00 0.00 0.00 64 1020.3
20200406045024 40 101 1.0 2.0 0.00 0.00 0.00 64 1020.3
20200406044535 40 101 0.0 2.0 0.00 0.00 0.00 64 1020.4
20200406044030 40 101 1.0 2.0 0.00 0.00 0.00 64 1020.4
20200406043527 41 101 1.0 2.0 0.00 0.00 0.00 64 1020.4
20200406043018 41 101 1.0 3.0 0.00 0.00 0.00 64 1020.4
20200406042535 41 101 1.0 3.0 0.00 0.00 0.00 65 1020.4
20200406042033 40 99 1.0 3.0 0.00 0.00 0.00 66 1020.4
20200406041520 40 99 0.0 2.0 0.00 0.00 0.00 67 1020.4
20200406041033 40 99 1.0 2.0 0.00 0.00 0.00 68 1020.4
20200406040542 40 99 0.0 0.0 0.00 0.00 0.00 69 1020.5
20200406040027 40 99 0.0 0.0 0.00 0.00 0.00 69 1020.5
20200406035523 40 99 0.0 0.0 0.00 0.00 0.00 70 1020.5
20200406035021 40 99 0.0 1.0 0.00 0.00 0.00 69 1020.5
20200406034527 41 99 0.0 2.0 0.00 0.00 0.00 68 1020.5
20200406034025 41 99 1.0 3.0 0.00 0.00 0.00 67 1020.6
20200406033523 41 99 1.0 3.0 0.00 0.00 0.00 67 1020.6
20200406033030 41 100 0.0 0.0 0.00 0.00 0.00 68 1020.6
20200406032526 41 100 0.0 0.0 0.00 0.00 0.00 69 1020.6
20200406032022 41 100 0.0 0.0 0.00 0.00 0.00 68 1020.6
20200406031528 41 100 0.0 0.0 0.00 0.00 0.00 69 1020.5
20200406031024 41 100 0.0 1.0 0.00 0.00 0.00 69 1020.5
20200406030554 41 100 0.0 1.0 0.00 0.00 0.00 69 1020.5
20200406030026 41 100 0.0 1.0 0.00 0.00 0.00 69 1020.6
20200406025521 40 100 0.0 0.0 0.00 0.00 0.00 70 1020.6
20200406025034 40 100 0.0 0.0 0.00 0.00 0.00 71 1020.6
20200406024523 40 100 0.0 0.0 0.00 0.00 0.00 72 1020.8
20200406024019 40 100 0.0 0.0 0.00 0.00 0.00 72 1020.8
20200406023537 41 100 0.0 0.0 0.00 0.00 0.00 70 1020.8
20200406023026 41 100 0.0 0.0 0.00 0.00 0.00 69 1020.9
20200406022522 41 100 0.0 0.0 0.00 0.00 0.00 68 1020.9
20200406022036 41 100 0.0 0.0 0.00 0.00 0.00 68 1020.9
20200406021526 41 100 0.0 0.0 0.00 0.00 0.00 68 1020.9
20200406021022 42 100 0.0 0.0 0.00 0.00 0.00 68 1020.9
20200406020549 42 100 0.0 0.0 0.00 0.00 0.00 68 1020.7
20200406020035 42 100 0.0 0.0 0.00 0.00 0.00 65 1020.9
20200406015528 42 100 0.0 0.0 0.00 0.00 0.00 65 1020.9
20200406015025 43 100 0.0 0.0 0.00 0.00 0.00 65 1020.8
20200406014533 43 100 0.0 0.0 0.00 0.00 0.00 65 1020.8
20200406014030 43 100 0.0 0.0 0.00 0.00 0.00 65 1020.6
20200406013533 43 100 0.0 0.0 0.00 0.00 0.00 64 1020.6
20200406013030 44 100 0.0 0.0 0.00 0.00 0.00 63 1020.6
20200406012526 45 100 0.0 0.0 0.00 0.00 0.00 62 1020.6
20200406012022 45 100 0.0 0.0 0.00 0.00 0.00 60 1020.5
20200406011531 45 100 0.0 0.0 0.00 0.00 0.00 60 1020.4
20200406011026 45 100 0.0 0.0 0.00 0.00 0.00 61 1020.4
20200406010556 46 100 0.0 0.0 0.00 0.00 0.00 59 1020.4
20200406010026 46 100 0.0 0.0 0.00 0.00 0.00 58 1020.4
20200406005521 47 100 0.0 0.0 0.00 0.00 0.00 57 1020.4
20200406005034 47 100 0.0 0.0 0.00 0.00 0.00 56 1020.4
20200406004521 48 100 0.0 1.0 0.00 0.00 0.00 55 1020.3
20200406004038 49 100 0.0 4.0 0.00 0.00 0.00 52 1020.2
20200406003527 49 100 1.0 4.0 0.00 0.00 0.00 51 1020.1
20200406003037 50 95 0.0 3.0 0.00 0.00 0.00 52 1020.2
20200406002533 50 87 1.0 3.0 0.00 0.00 0.00 51 1020.1
20200406002031 51 89 0.0 6.0 0.00 0.00 0.00 50 1020.0
20200406001531 51 88 0.0 6.0 0.00 0.00 0.00 49 1020.1
20200406001023 51 105 1.0 3.0 0.00 0.00 0.00 48 1020.3
20200406000554 52 105 1.0 3.0 0.00 0.00 0.00 48 1020.3
20200406000018 52 105 1.0 6.0 0.00 0.00 0.00 48 1020.3
20200405235536 53 85 1.0 6.0 0.00 0.00 0.00 46 1020.3
20200405235034 53 103 1.0 5.0 0.00 0.00 0.00 46 1020.3
20200405234521 53 105 3.0 5.0 0.00 0.00 0.00 44 1020.4
20200405234032 53 105 1.0 7.0 0.00 0.00 0.00 46 1020.3
20200405233528 54 115 2.0 7.0 0.00 0.00 0.00 43 1020.3
20200405233017 54 88 3.0 10.0 0.00 0.00 0.00 43 1020.3
20200405232532 54 74 4.0 10.0 0.00 0.00 0.00 43 1020.4
20200405232026 54 99 2.0 9.0 0.00 0.00 0.00 41 1020.3
20200405231531 54 105 5.0 9.0 0.00 0.00 0.00 42 1020.4
20200405231029 54 90 3.0 8.0 0.00 0.00 0.00 39 1020.4
20200405230555 55 97 3.0 8.0 0.00 0.00 0.00 41 1020.4
20200405230028 55 86 3.0 7.0 0.00 0.00 0.00 39 1020.4
20200405225526 55 120 3.0 7.0 0.00 0.00 0.00 40 1020.5
20200405225019 55 53 3.0 6.0 0.00 0.00 0.00 39 1020.4
20200405224527 55 126 3.0 10.0 0.00 0.00 0.00 39 1020.5
20200405224024 55 77 4.0 10.0 0.00 0.00 0.00 40 1020.6
20200405223521 55 108 4.0 7.0 0.00 0.00 0.00 40 1020.6
20200405223027 55 98 3.0 5.0 0.00 0.00 0.00 37 1020.6
20200405222523 55 90 1.0 5.0 0.00 0.00 0.00 38 1020.6
20200405222036 55 86 3.0 8.0 0.00 0.00 0.00 42 1020.6
20200405221522 55 97 2.0 8.0 0.00 0.00 0.00 40 1020.5
20200405221020 56 87 4.0 9.0 0.00 0.00 0.00 42 1020.6
20200405220550 56 89 5.0 9.0 0.00 0.00 0.00 42 1020.7
20200405220035 55 84 3.0 4.0 0.00 0.00 0.00 41 1020.7
20200405215527 55 103 0.0 7.0 0.00 0.00 0.00 41 1020.6
20200405215024 56 120 4.0 8.0 0.00 0.00 0.00 41 1020.6
20200405214534 56 89 3.0 8.0 0.00 0.00 0.00 40 1020.7
20200405214029 56 146 2.0 6.0 0.00 0.00 0.00 40 1020.6
20200405213527 56 89 4.0 8.0 0.00 0.00 0.00 43 1020.5
20200405213032 56 49 4.0 8.0 0.00 0.00 0.00 42 1020.6
20200405212529 56 92 3.0 8.0 0.00 0.00 0.00 42 1020.7
20200405212027 56 82 2.0 7.0 0.00 0.00 0.00 40 1020.8
20200405211537 56 61 1.0 9.0 0.00 0.00 0.00 38 1020.9
20200405211032 57 78 4.0 9.0 0.00 0.00 0.00 43 1021.0
20200405210542 55 51 1.0 6.0 0.00 0.00 0.00 41 1021.0
20200405210034 57 59 4.0 6.0 0.00 0.00 0.00 46 1021.1
20200405205535 56 41 2.0 7.0 0.00 0.00 0.00 41 1021.1
20200405205029 56 44 5.0 7.0 0.00 0.00 0.00 43 1021.1
20200405204537 56 66 4.0 8.0 0.00 0.00 0.00 43 1021.2
20200405204036 56 90 4.0 8.0 0.00 0.00 0.00 45 1021.2
20200405203526 56 208 1.0 4.0 0.00 0.00 0.00 41 1021.3
20200405203031 56 130 1.0 8.0 0.00 0.00 0.00 41 1021.4
20200405202529 56 82 4.0 8.0 0.00 0.00 0.00 42 1021.5
20200405202023 55 245 1.0 5.0 0.00 0.00 0.00 45 1021.5
20200405201534 56 60 3.0 5.0 0.00 0.00 0.00 42 1021.6
20200405201030 56 113 2.0 8.0 0.00 0.00 0.00 45 1021.7
20200405200551 56 183 2.0 8.0 0.00 0.00 0.00 45 1021.8
20200405200037 55 63 1.0 8.0 0.00 0.00 0.00 45 1021.7
20200405195533 55 53 3.0 8.0 0.00 0.00 0.00 44 1021.7
20200405195031 55 94 2.0 6.0 0.00 0.00 0.00 48 1021.7
20200405194522 55 32 2.0 4.0 0.00 0.00 0.00 48 1021.7
20200405194036 54 85 2.0 5.0 0.00 0.00 0.00 48 1021.8
20200405193533 54 336 3.0 10.0 0.00 0.00 0.00 49 1021.8
20200405193022 55 91 5.0 11.0 0.00 0.00 0.00 48 1022.0
20200405192517 55 76 4.0 11.0 0.00 0.00 0.00 49 1022.0
20200405192035 55 68 5.0 9.0 0.00 0.00 0.00 47 1022.0
20200405191522 54 71 3.0 7.0 0.00 0.00 0.00 46 1021.9
20200405191035 55 55 5.0 8.0 0.00 0.00 0.00 50 1022.0
20200405190542 54 95 1.0 8.0 0.00 0.00 0.00 48 1022.2
20200405190036 54 124 4.0 8.0 0.00 0.00 0.00 48 1022.2
20200405185531 54 344 2.0 6.0 0.00 0.00 0.00 55 1022.2
20200405185025 53 141 1.0 11.0 0.00 0.00 0.00 51 1022.3
20200405184531 54 44 5.0 8.0 0.00 0.00 0.00 50 1022.3
20200405184028 54 287 2.0 4.0 0.00 0.00 0.00 47 1022.2
20200405183526 54 91 2.0 6.0 0.00 0.00 0.00 53 1022.3
20200405183035 53 55 3.0 7.0 0.00 0.00 0.00 53 1022.3
20200405182532 53 51 3.0 6.0 0.00 0.00 0.00 51 1022.4
20200405182023 53 69 5.0 7.0 0.00 0.00 0.00 56 1022.6
20200405181532 53 83 3.0 5.0 0.00 0.00 0.00 58 1022.7
20200405181029 52 262 2.0 4.0 0.00 0.00 0.00 56 1022.7
20200405180558 53 83 1.0 6.0 0.00 0.00 0.00 54 1022.7
20200405180021 52 64 3.0 10.0 0.00 0.00 0.00 56 1022.8
20200405175533 52 34 3.0 10.0 0.00 0.00 0.00 58 1022.8
20200405175029 51 69 2.0 6.0 0.00 0.00 0.00 53 1022.8
20200405174521 51 56 3.0 6.0 0.00 0.00 0.00 53 1023.0
20200405174018 52 211 2.0 5.0 0.00 0.00 0.00 55 1023.1
20200405173534 51 106 1.0 8.0 0.00 0.00 0.00 56 1023.2
20200405173026 51 108 4.0 8.0 0.00 0.00 0.00 60 1023.2
20200405172520 51 111 2.0 6.0 0.00 0.00 0.00 62 1023.2
20200405172018 51 99 3.0 6.0 0.00 0.00 0.00 59 1023.3
20200405171525 51 321 2.0 8.0 0.00 0.00 0.00 62 1023.2
20200405171020 50 276 2.0 9.0 0.00 0.00 0.00 61 1023.3
20200405170544 50 66 4.0 9.0 0.00 0.00 0.00 61 1023.2
20200405170031 49 45 2.0 5.0 0.00 0.00 0.00 63 1023.2
20200405165524 49 43 3.0 7.0 0.00 0.00 0.00 60 1023.2
20200405165018 49 105 3.0 8.0 0.00 0.00 0.00 63 1023.3
20200405164527 49 66 4.0 8.0 0.00 0.00 0.00 63 1023.3
20200405164027 48 57 3.0 8.0 0.00 0.00 0.00 65 1023.2
20200405163522 48 51 3.0 9.0 0.00 0.00 0.00 65 1023.2
20200405163024 48 70 5.0 9.0 0.00 0.00 0.00 66 1023.1
20200405162519 48 66 3.0 8.0 0.00 0.00 0.00 67 1023.1
20200405162037 47 39 3.0 8.0 0.00 0.00 0.00 67 1023.3
20200405161525 48 80 3.0 7.0 0.00 0.00 0.00 70 1023.3
20200405161022 48 69 6.0 8.0 0.00 0.00 0.00 69 1023.4
20200405160546 48 5 2.0 6.0 0.00 0.00 0.00 72 1023.4
20200405160036 47 61 2.0 7.0 0.00 0.00 0.00 75 1023.3
20200405155534 47 53 3.0 7.0 0.00 0.00 0.00 75 1023.4
20200405155032 47 113 3.0 7.0 0.00 0.00 0.00 74 1023.4
20200405154521 46 76 2.0 6.0 0.00 0.00 0.00 76 1023.5
20200405154017 46 47 3.0 8.0 0.00 0.00 0.00 74 1023.5